Latest Coastal Weather Observations for Milingimbi

IDD60701

Issued at 5:21 am CST Thursday 25 August 2016 (issued every 10 minutes, with the page automatically refreshed every 10 minutes)

About coastal observations | Map of coastal stations | Coastal observations for NT | Marine services | Other Formats
Station Details ID: 014404 Name: MILINGIMBI AIRPORT Lat: -12.09 Lon: 134.89 Height: 15.0 m
Data from the previous 72 hours. | See also: Recent months at Milingimbi
Date/Time
CST
Temp
°C
Wind Pressure Rain since
9am
mm
Weather Cloud Vis
km
Sea
Height
m
Swell
Dir  Spd
kts
Gust
kts
hPa Trend Height
m
Period
s
Dir
25/05:00am 23.5 NW 3 5 1010.2 - 0.0 - - - - - - -
25/04:30am 23.6 CALM 0 2 1010.2 - 0.0 - - - - - - -
25/04:00am 23.8 CALM 0 0 1010.3 - 0.0 - - - - - - -
25/03:30am 24.2 CALM 0 0 1010.2 - 0.0 - - - - - - -
25/03:00am 24.5 CALM 0 2 1010.4 - 0.0 - - - - - - -
25/02:30am 24.7 CALM 0 0 1010.5 - 0.0 - - - - - - -
25/02:00am 25.2 CALM 0 3 1010.5 - 0.0 - - - - - - -
25/01:30am 25.0 N 3 4 1010.5 - 0.0 - - - - - - -
25/01:00am 24.5 CALM 0 3 1010.8 - 0.0 - - - - - - -
25/12:30am 24.3 CALM 0 0 1011.0 - 0.0 - - - - - - -
25/12:00am 24.5 CALM 0 3 1010.8 - 0.0 - - - - - - -
 
Date/Time
CST
Temp
°C
Wind Pressure Rain since
9am
mm
Weather Cloud Vis
km
Sea
Height
m
Swell
Dir  Spd
kts
Gust
kts
hPa Trend Height
m
Period
s
Dir
24/11:30pm 25.0 NNW 3 4 1010.8 - 0.0 - - - - - - -
24/11:00pm 25.2 NNW 4 5 1010.6 - 0.0 - - - - - - -
24/10:30pm 25.4 NW 3 5 1010.6 - 0.0 - - - - - - -
24/10:00pm 25.5 NNW 4 5 1010.4 - 0.0 - - - - - - -
24/09:30pm 25.7 NNW 5 7 1010.1 - 0.0 - - - - - - -
24/09:00pm 25.7 N 5 7 1009.8 - 0.0 - - - - - - -
24/08:30pm 25.8 NNW 5 8 1009.8 - 0.0 - - - - - - -
24/08:00pm 25.8 N 4 7 1009.5 - 0.0 - - - - - - -
24/07:30pm 25.9 NNW 4 7 1009.2 - 0.0 - - - - - - -
24/07:00pm 26.0 N 5 8 1008.7 - 0.0 - - - - - - -
24/06:30pm 26.3 N 6 9 1008.4 - 0.0 - - - - - - -
24/06:00pm 26.9 N 6 11 1007.9 - 0.0 - - - - - - -
24/05:30pm 27.4 N 7 11 1007.9 - 0.0 - - - - - - -
24/05:00pm 27.8 N 8 13 1007.6 - 0.0 - - - - - - -
24/04:30pm 28.1 N 9 15 1007.7 - 0.0 - - - - - - -
24/04:00pm 28.8 N 8 13 1007.9 - 0.0 - - - - - - -
24/03:30pm 28.4 N 8 16 1007.9 - 0.0 - - - - - - -
24/03:00pm 28.8 NNW 9 15 1008.0 - 0.0 - - - - - - -
24/02:30pm 29.6 N 8 13 1008.3 - 0.0 - - - - - - -
24/02:00pm 29.4 N 9 15 1008.7 - 0.0 - - - - - - -
24/01:30pm 29.4 N 8 13 1009.0 - 0.0 - - - - - - -
24/01:00pm 29.7 N 9 13 1009.4 - 0.0 - - - - - - -
24/12:30pm 29.1 N 8 14 1009.9 - 0.0 - - - - - - -
24/12:00pm 29.9 N 8 14 1010.4 - 0.0 - - - - - - -
24/11:30am 29.1 N 9 13 1010.9 - 0.0 - - - - - - -
24/11:00am 28.9 N 6 10 1011.4 - 0.0 - - - - - - -
24/10:30am 28.8 N 5 10 1011.9 - 0.0 - - - - - - -
24/10:00am 28.7 SSW 4 5 1012.2 - 0.0 - - - - - - -
24/09:30am 28.5 NW 5 8 1012.5 - 0.0 - - - - - - -
24/09:00am 27.9 WNW 7 9 1012.5 - 0.0 - - - - - - -
24/08:30am 26.6 WNW 5 8 1012.4 - 0.0 - - - - - - -
24/08:00am 25.6 W 5 7 1011.9 - 0.0 - - - - - - -
24/07:30am 24.0 W 5 7 1011.6 - 0.0 - - - - - - -
24/07:00am 22.7 W 4 6 1011.2 - 0.0 - - - - - - -
24/06:30am 22.6 WSW 3 6 1010.8 - 0.0 - - - - - - -
24/06:00am 22.7 W 4 6 1010.4 - 0.0 - - - - - - -
24/05:30am 23.0 WSW 4 5 1010.3 - 0.0 - - - - - - -
24/05:00am 23.6 CALM 0 3 1010.2 - 0.0 - - - - - - -
24/04:30am 24.2 WNW 3 4 1009.9 - 0.0 - - - - - - -
24/04:00am 24.7 WNW 4 6 1009.8 - 0.0 - - - - - - -
24/03:30am 24.5 NW 3 5 1009.8 - 0.0 - - - - - - -
24/03:00am 24.5 NNW 4 5 1009.9 - 0.0 - - - - - - -
24/02:30am 24.6 NNW 4 6 1009.8 - 0.0 - - - - - - -
24/02:00am 24.8 NNW 4 5 1009.7 - 0.0 - - - - - - -
24/01:30am 24.7 NNW 4 6 1009.9 - 0.0 - - - - - - -
24/01:00am 25.0 NW 4 7 1010.0 - 0.0 - - - - - - -
24/12:30am 25.3 NNW 5 7 1010.0 - 0.0 - - - - - - -
24/12:00am 25.3 NW 4 6 1010.0 - 0.0 - - - - - - -
 
Date/Time
CST
Temp
°C
Wind Pressure Rain since
9am
mm
Weather Cloud Vis
km
Sea
Height
m
Swell
Dir  Spd
kts
Gust
kts
hPa Trend Height
m
Period
s
Dir
23/11:30pm 25.4 NNW 5 9 1009.9 - 0.0 - - - - - - -
23/11:00pm 25.3 N 5 8 1009.9 - 0.0 - - - - - - -
23/10:30pm 25.3 N 4 7 1009.9 - 0.0 - - - - - - -
23/10:00pm 25.3 N 5 8 1009.9 - 0.0 - - - - - - -
23/09:30pm 25.4 N 5 9 1009.7 - 0.0 - - - - - - -
23/09:00pm 25.4 N 5 9 1009.4 - 0.0 - - - - - - -
23/08:30pm 25.4 N 5 8 1009.5 - 0.0 - - - - - - -
23/08:00pm 25.4 N 5 11 1009.2 - 0.0 - - - - - - -
23/07:30pm 25.5 N 5 9 1008.9 - 0.0 - - - - - - -
23/07:00pm 25.6 N 5 7 1008.6 - 0.0 - - - - - - -
23/06:30pm 25.9 N 5 8 1008.3 - 0.0 - - - - - - -
23/06:00pm 26.6 N 6 9 1007.9 - 0.0 - - - - - - -
23/05:30pm 27.4 N 6 9 1007.6 - 0.0 - - - - - - -
23/05:00pm 27.4 N 7 11 1007.3 - 0.0 - - - - - - -
23/04:30pm 28.1 N 7 11 1007.3 - 0.0 - - - - - - -
23/04:00pm 28.6 N 8 13 1007.3 - 0.0 - - - - - - -
23/03:30pm 28.7 NNW 8 14 1007.3 - 0.0 - - - - - - -
23/03:00pm 28.6 N 9 12 1007.5 - 0.0 - - - - - - -
23/02:30pm 28.8 N 7 15 1008.0 - 0.0 - - - - - - -
23/02:00pm 28.8 N 8 14 1008.2 - 0.0 - - - - - - -
23/01:30pm 28.8 N 9 14 1008.7 - 0.0 - - - - - - -
23/01:00pm 28.3 N 9 13 1009.2 - 0.0 - - - - - - -
23/12:30pm 29.0 N 9 13 1009.8 - 0.0 - - - - - - -
23/12:00pm 29.0 N 8 12 1010.2 - 0.0 - - - - - - -
23/11:30am 28.9 N 8 11 1010.7 - 0.0 - - - - - - -
23/11:00am 29.0 N 7 12 1011.0 - 0.0 - - - - - - -
23/10:30am 28.5 N 8 13 1011.4 - 0.0 - - - - - - -
23/10:00am 28.3 WNW 7 10 1011.5 - 0.0 - - - - - - -
23/09:30am 27.8 WNW 7 10 1011.7 - 0.0 - - - - - - -
23/09:00am 27.2 WNW 6 11 1011.5 - 0.0 - - - - - - -
23/08:30am 24.0 WSW 2 4 1011.5 - 0.0 - - - - - - -
23/08:00am 23.4 SW 3 5 1011.2 - 0.0 - - - - - - -
23/07:30am 23.6 SW 2 4 1010.9 - 0.0 - - - - - - -
23/07:00am 23.9 W 3 4 1010.6 - 0.0 - - - - - - -
23/06:30am 23.7 WNW 3 4 1010.4 - 0.0 - - - - - - -
23/06:00am 23.5 WNW 3 4 1010.0 - 0.0 - - - - - - -
23/05:30am 23.8 WNW 3 6 1009.8 - 0.0 - - - - - - -
23/05:00am 23.4 NW 2 3 1009.7 - 0.0 - - - - - - -
23/04:30am 23.1 NW 3 4 1009.5 - 0.0 - - - - - - -
23/04:00am 23.1 NW 1 3 1009.3 - 0.0 - - - - - - -
23/03:30am 23.3 NNW 3 4 1009.4 - 0.0 - - - - - - -
23/03:00am 23.5 NNW 1 4 1009.5 - 0.0 - - - - - - -
23/02:30am 23.5 CALM 0 0 1009.6 - 0.0 - - - - - - -
23/02:00am 24.1 CALM 0 0 1009.8 - 0.0 - - - - - - -
23/01:30am 24.7 NNE 1 3 1009.9 - 0.0 - - - - - - -
23/01:00am 25.0 N 4 7 1010.2 - 0.0 - - - - - - -
23/12:30am 24.9 N 2 6 1010.3 - 0.0 - - - - - - -
23/12:00am 25.2 NNE 5 8 1010.3 - 0.0 - - - - - - -
 
Date/Time
CST
Temp
°C
Wind Pressure Rain since
9am
mm
Weather Cloud Vis
km
Sea
Height
m
Swell
Dir  Spd
kts
Gust
kts
hPa Trend Height
m
Period
s
Dir
22/11:30pm 25.0 NNE 4 6 1010.5 - 0.0 - - - - - - -
22/11:00pm 25.0 NNE 4 6 1010.4 - 0.0 - - - - - - -
22/10:30pm 25.1 N 5 9 1010.5 - 0.0 - - - - - - -
22/10:00pm 25.1 NNE 5 9 1010.4 - 0.0 - - - - - - -
22/09:30pm 25.2 NNE 5 11 1010.4 - 0.0 - - - - - - -
22/09:00pm 25.3 NNE 6 9 1010.0 - 0.0 - - - - - - -
22/08:30pm 25.3 NNE 5 9 1009.7 - 0.0 - - - - - - -
22/08:00pm 25.4 N 5 7 1009.3 - 0.0 - - - - - - -
22/07:30pm 25.6 N 5 10 1008.9 - 0.0 - - - - - - -
22/07:00pm 25.7 N 4 8 1008.6 - 0.0 - - - - - - -
22/06:30pm 25.9 NNE 6 10 1008.3 - 0.0 - - - - - - -
22/06:00pm 26.5 NNE 7 11 1007.9 - 0.0 - - - - - - -
22/05:30pm 26.9 N 7 11 1007.8 - 0.0 - - - - - - -
22/05:00pm 27.4 NNE 8 12 1007.6 - 0.0 - - - - - - -
22/04:30pm 27.6 N 8 13 1007.4 - 0.0 - - - - - - -
22/04:00pm 28.0 N 8 15 1007.1 - 0.0 - - - - - - -
22/03:30pm 28.4 N 7 11 1007.3 - 0.0 - - - - - - -
22/03:00pm 28.2 N 9 13 1007.4 - 0.0 - - - - - - -
22/02:30pm 29.0 N 8 13 1007.8 - 0.0 - - - - - - -
22/02:00pm 29.4 N 8 13 1008.1 - 0.0 - - - - - - -
22/01:30pm 29.0 N 8 11 1008.4 - 0.0 - - - - - - -
22/01:00pm 29.0 N 7 11 1008.7 - 0.0 - - - - - - -
22/12:30pm 29.4 N 7 11 1009.2 - 0.0 - - - - - - -
22/12:00pm 29.7 N 6 9 1009.7 - 0.0 - - - - - - -
22/11:30am 29.6 N 6 8 1010.2 - 0.0 - - - - - - -
22/11:00am 28.3 NNE 6 9 1010.6 - 0.0 - - - - - - -
22/10:30am 27.8 N 5 9 1010.8 - 0.0 - - - - - - -
22/10:00am 28.2 NNW 5 8 1011.1 - 0.0 - - - - - - -
22/09:30am 27.9 NE 5 10 1011.4 - 0.0 - - - - - - -
22/09:00am 27.0 N 5 9 1011.3 - 0.0 - - - - - - -
22/08:30am 26.0 W 3 4 1011.2 - 0.0 - - - - - - -
22/08:00am 23.8 CALM 0 0 1011.0 - 0.0 - - - - - - -
22/07:30am 22.3 CALM 0 0 1010.9 - 0.0 - - - - - - -
22/07:00am 21.9 CALM 0 0 1010.8 - 0.0 - - - - - - -
22/06:30am 22.0 CALM 0 0 1010.5 - 0.0 - - - - - - -
22/06:00am 22.0 CALM 0 0 1010.0 - 0.0 - - - - - - -
22/05:30am 22.2 CALM 0 0 1009.8 - 0.0 - - - - - - -

Other Formats:

Comma delimited format used in spreadsheet applications
http://www.bom.gov.au/fwo/IDD60701/IDD60701.94140.axf

JavaScript Object Notation format (JSON) in row-major order
http://www.bom.gov.au/fwo/IDD60701/IDD60701.94140.json